Voltar ao catálogo

SICH 2

AtivoCiênciaSSO
NORAD 37794·PAYLOAD·🇺🇦 Ukraine

Lançado Aug 17, 2011 de Dombarovsky

Loading…

Próximas Passagens (próximas 24 horas)

TLE

AtualizadoSource: Space-Track

Época: Sep 14, 2026, 10:43 UTC

1 37794U 11044G   26257.44680502  .00000411  00000-0  83855-4 0  9990
2 37794  97.8488 233.9806 0010646 244.2836 284.1581 14.65733707804535

Acompanhe SICH 2 em tempo real com AllMySat

Download on the App Store